Epoch 2020 Mar. 12.0 TT = JDT 2458920.5
T 2020 Mar. 22.22676 TT Rudenko
q 1.6998010 (2000.0) P Q
n 0.07060996 Peri. 232.33613 +0.88996454 -0.43132873
a 5.7972948 Node 152.28070 +0.44896256 +0.88564765
e 0.7067941 Incl. 18.55954 -0.07997335 +0.17199935
P 14.0
From 318 observations 2006 Nov. 16-2021 Mar. 6, mean residual 0".8.
Finding Charts
Magnitudes Graph
m1 = 9.7 + 5 log d + 15.0 log r(t - 15)
The orbital elements are published on M.P.E.C. 2021-J28.
The charts are made with StellaNavigator Ver.10 (AstroArts).
The magnitudes graphs are made with Comet for Windows.
Copyright(C) Seiichi Yoshida (comet@aerith.net). All rights reserved.